This demonstration page uses our WeatherBlox Daily Observations layout. Learn more.

Left ArrowRight Arrow

Hourly Observations for February 24, 2020

Temp ( °F °C ) Dew Point ( °F °C ) Humidity (%) Winds ( mph kmh ) Pressure ( in mb ) Visibility ( mi km ) Precip ( " mm )
12:59 am 00:59 Mostly Clear 47 8.3 31 -0.6 54 54 S 6 9 30.14 1021 10 16 0.00 0.00
1:59 am 01:59 Clear 46 7.8 31 -0.6 56 56 SSW 5 7 30.13 1020 10 16 0.00 0.00
2:59 am 02:59 Clear 44 6.7 31 -0.6 60 60 S 6 9 30.11 1020 10 16 0.00 0.00
3:59 am 03:59 Clear 44 6.7 31 -0.6 60 60 S 5 7 30.10 1019 10 16 0.00 0.00
4:59 am 04:59 Partly Cloudy 45 7.2 31 -0.6 58 58 S 5 7 30.10 1019 10 16 0.00 0.00
5:59 am 05:59 Mostly Cloudy 44 6.7 31 -0.6 60 60 S 3 6 30.09 1019 10 16 0.00 0.00
6:59 am 06:59 Mostly Cloudy 44 6.7 31 -0.6 60 60 SSW 5 7 30.09 1019 10 16 0.00 0.00
7:59 am 07:59 Mostly Cloudy 47 8.3 33 0.6 59 59 SSW 5 7 30.11 1020 10 16 0.00 0.00
8:59 am 08:59 Cloudy 50 10 33 0.6 52 52 SW 7 11 30.12 1020 10 16 0.00 0.00
9:59 am 09:59 Cloudy 53 11.7 33 0.6 47 47 SW 7 11 30.12 1020 10 16 0.00 0.00
10:59 am 10:59 Cloudy 54 12.2 33 0.6 45 45 SW 9 15 30.12 1020 10 16 0.00 0.00
11:59 am 11:59 Cloudy 55 12.8 34 1.1 45 45 WSW 12 19 30.11 1020 10 16 0.00 0.00
12:59 pm 12:59 Cloudy with Light Rain 55 12.8 38 3.3 53 53 WSW 6 9 30.09 1019 10 16 0.00 0.00
1:59 pm 13:59 Cloudy with Light Rain 54 12.2 42 5.6 64 64 Calm 30.07 1018 10 16 0.00 0.00
2:59 pm 14:59 Cloudy with Light Rain 54 12.2 40 4.4 59 59 W 8 13 30.06 1018 10 16 0.00 0.00
3:59 pm 15:59 Cloudy 54 12.2 42 5.6 64 64 Calm 30.04 1017 10 16 0.00 0.00
4:59 pm 16:59 Cloudy with Light Rain 53 11.7 43 6.1 69 69 SW 6 9 30.05 1018 8 13 0.00 0.00
5:59 pm 17:59 Cloudy with Light Rain 51 10.6 43 6.1 74 74 WNW 6 9 30.04 1017 7 11 0.00 0.00
6:59 pm 18:59 Cloudy with Light Rain 50 10 45 7.2 83 83 WSW 6 9 30.06 1018 7 11 0.00 0.00
7:59 pm 19:59 Cloudy 50 10 45 7.2 83 83 SSW 3 6 30.04 1017 7 11 0.00 0.00
8:59 pm 20:59 Cloudy 51 10.6 44 6.7 77 77 SSW 5 7 30.04 1017 9 14 0.00 0.00
9:59 pm 21:59 Cloudy with Light Rain 49 9.4 45 7.2 86 86 SSW 6 9 30.03 1017 8 13 0.02 0.51
10:59 pm 22:59 Cloudy with Light Rain 49 9.4 45 7.2 86 86 S 6 9 30.00 1016 8 13 0.02 0.51
11:59 pm 23:59 Cloudy with Light Rain 49 9.4 46 7.8 90 90 S 6 9 29.98 1015 7 11 0.02 0.51

Powered by AerisWeather